Fremont, NE

2:42 AM CDT on August 24, 2016 (GMT -0500)
Fremont Municipal

Weather History for KFET - May, 2014

Change the Weather History Date:

Saturday, May 24, 2014

  Actual Average Record
Temperature  
Mean Temperature 72 °F -  
Max Temperature 80 °F 77 °F 100 °F (1967)
Min Temperature 63 °F 53 °F 39 °F (1949)
Cooling Degree Days 6    
Growing Degree Days 22 (Base 50)    
Moisture  
Dew Point 53 °F    
Average Humidity 56    
Maximum Humidity 78    
Minimum Humidity 35    
Precipitation  
Precipitation 0.00 in - - ()
Sea Level Pressure  
Sea Level Pressure 30.06 in    
Wind  
Wind Speed 7 mph (SE)    
Max Wind Speed 17 mph    
Max Gust Speed 24 mph    
Visibility 10 miles    
Events      
Averages and records for this station are not official NWS values.
T = Trace of Precipitation, MM = Missing Value Source: NWS Daily Summary

Daily Weather History Graph

Daily Weather History Graph

Search for Another Location

Airport or City:

Trip Planner

Search our weather history database for the weather conditions in past years. The results will help you decide how hot, cold, wet, or windy it might be!

Date:

Astronomy

May. 24, 2014 Rise Set
Actual Time 5:59 AM CDT 8:46 PM CDT
Civil Twilight 5:26 AM CDT 9:19 PM CDT
Nautical Twilight 4:46 AM CDT 10:00 PM CDT
Astronomical Twilight 3:59 AM CDT 10:47 PM CDT
Moon 3:32 AM CDT 4:42 PM CDT
Length of Visible Light 15h 52m
Length of Day
14h 47m
Waning Crescent, 18% of the Moon is Illuminated
May 24
Waning Crescent
May 28
New
Jun 5
First Quarter
Jun 12
Full
Jun 19
Last Quarter

Hourly Weather History & Observations

Time (CDT) Temp. Dew Point Humidity Pressure Visibility Wind Dir Wind Speed Gust Speed Precip Events Conditions
12:15 AM 68.2 °F 49.5 °F 51% 30.11 in 10.0 mi East 4.6 mph - N/A   Clear
12:35 AM 67.6 °F 49.5 °F 52% 30.11 in 10.0 mi ESE 4.6 mph - N/A   Clear
12:55 AM 66.2 °F 50.7 °F 57% 30.11 in 10.0 mi ESE 4.6 mph - N/A   Clear
1:15 AM 66.2 °F 50.9 °F 58% 30.11 in 10.0 mi SE 5.8 mph - N/A   Clear
1:35 AM 65.8 °F 51.4 °F 60% 30.10 in 10.0 mi SE 4.6 mph - N/A   Clear
1:55 AM 66.0 °F 51.4 °F 59% 30.10 in 10.0 mi ESE 4.6 mph - N/A   Clear
2:15 AM 66.2 °F 51.6 °F 59% 30.10 in 10.0 mi ESE 4.6 mph - N/A   Clear
2:35 AM 65.5 °F 51.8 °F 61% 30.10 in 10.0 mi East 4.6 mph - N/A   Clear
2:55 AM 65.3 °F 51.8 °F 62% 30.10 in 10.0 mi East 4.6 mph - N/A   Clear
3:15 AM 64.9 °F 52.0 °F 63% 30.10 in 10.0 mi ESE 3.5 mph - N/A   Clear
3:35 AM 64.6 °F 52.2 °F 64% 30.10 in 10.0 mi ESE 4.6 mph - N/A   Clear
3:55 AM 64.4 °F 52.2 °F 64% 30.10 in 10.0 mi SE 4.6 mph - N/A   Clear
4:15 AM 64.4 °F 52.7 °F 66% 30.10 in 10.0 mi ESE 3.5 mph - N/A   Clear
4:35 AM 64.6 °F 52.5 °F 65% 30.10 in 5.0 mi East 4.6 mph - N/A   Haze
4:55 AM 64.6 °F 52.2 °F 64% 30.10 in 10.0 mi Calm Calm - N/A   Clear
5:15 AM 63.9 °F 52.3 °F 66% 30.10 in 5.0 mi East 3.5 mph - N/A   Haze
5:35 AM 63.5 °F 52.5 °F 67% 30.10 in 5.0 mi East 4.6 mph - N/A   Haze
5:55 AM 63.5 °F 52.7 °F 68% 30.10 in 3.0 mi ESE 4.6 mph - N/A   Haze
6:15 AM 63.9 °F 52.5 °F 67% 30.10 in 5.0 mi ESE 5.8 mph - N/A   Haze
6:35 AM 63.9 °F 52.5 °F 67% 30.11 in 10.0 mi ESE 5.8 mph - N/A   Clear
7:15 AM 64.4 °F 53.4 °F 67% 30.12 in 10.0 mi Calm Calm - N/A   Mostly Cloudy
7:35 AM 64.4 °F 53.6 °F 68% 30.12 in 10.0 mi Calm Calm - N/A   Mostly Cloudy
7:55 AM 64.9 °F 53.2 °F 66% 30.12 in 10.0 mi East 3.5 mph - N/A   Mostly Cloudy
8:15 AM 65.3 °F 52.9 °F 64% 30.12 in 10.0 mi East 4.6 mph - N/A   Scattered Clouds
8:55 AM 66.4 °F 52.2 °F 60% 30.11 in 10.0 mi ESE 4.6 mph - N/A   Scattered Clouds
9:15 AM 68.0 °F 52.2 °F 57% 30.12 in 10.0 mi SSE 6.9 mph - N/A   Scattered Clouds
9:35 AM 69.1 °F 51.8 °F 54% 30.11 in 10.0 mi ESE 8.1 mph - N/A   Mostly Cloudy
9:55 AM 69.1 °F 50.9 °F 52% 30.11 in 10.0 mi SE 9.2 mph - N/A   Scattered Clouds
10:15 AM 68.9 °F 51.8 °F 54% 30.10 in 10.0 mi SE 10.4 mph - N/A   Mostly Cloudy
10:35 AM 69.4 °F 52.3 °F 54% 30.10 in 10.0 mi SE 10.4 mph - N/A   Mostly Cloudy
10:55 AM 70.0 °F 52.2 °F 53% 30.10 in 10.0 mi ESE 9.2 mph - N/A   Mostly Cloudy
11:15 AM 70.5 °F 51.3 °F 50% 30.11 in 10.0 mi SE 10.4 mph - N/A   Overcast
11:35 AM 70.5 °F 52.0 °F 52% 30.10 in 10.0 mi SE 9.2 mph - N/A   Mostly Cloudy
11:55 AM 71.4 °F 51.3 °F 49% 30.10 in 10.0 mi SE 11.5 mph - N/A   Mostly Cloudy
12:15 PM 72.7 °F 50.4 °F 45% 30.09 in 10.0 mi SE 11.5 mph - N/A   Scattered Clouds
12:35 PM 73.4 °F 50.7 °F 45% 30.09 in 10.0 mi ESE 10.4 mph - N/A   Scattered Clouds
12:55 PM 73.4 °F 48.7 °F 42% 30.08 in 10.0 mi SE 9.2 mph - N/A   Mostly Cloudy
1:15 PM 74.5 °F 49.5 °F 41% 30.07 in 10.0 mi ESE 12.7 mph - N/A   Mostly Cloudy
1:35 PM 74.7 °F 48.2 °F 39% 30.07 in 10.0 mi ESE 12.7 mph 17.3 mph N/A   Mostly Cloudy
1:55 PM 76.8 °F 50.2 °F 39% 30.06 in 10.0 mi ESE 9.2 mph 17.3 mph N/A   Scattered Clouds
2:15 PM 77.2 °F 51.1 °F 40% 30.06 in 10.0 mi ESE 10.4 mph 17.3 mph N/A   Clear
2:35 PM 77.9 °F 52.3 °F 41% 30.05 in 10.0 mi ESE 15.0 mph 24.2 mph N/A   Clear
2:55 PM 77.0 °F 52.5 °F 42% 30.05 in 10.0 mi SE 11.5 mph 16.1 mph N/A   Clear
3:15 PM 77.0 °F 52.0 °F 42% 30.04 in 10.0 mi SE 10.4 mph - N/A   Clear
3:35 PM 79.5 °F 51.8 °F 38% 30.04 in 10.0 mi SE 13.8 mph 18.4 mph N/A   Clear
3:55 PM 79.2 °F 50.9 °F 37% 30.03 in 10.0 mi East 11.5 mph 20.7 mph N/A   Clear
4:15 PM 79.0 °F 50.5 °F 37% 30.03 in 10.0 mi East 15.0 mph 19.6 mph N/A   Clear
4:35 PM 79.3 °F 53.2 °F 40% 30.02 in 10.0 mi SE 11.5 mph 17.3 mph N/A   Scattered Clouds
4:55 PM 77.9 °F 54.3 °F 44% 30.01 in 10.0 mi SE 8.1 mph 17.3 mph N/A   Scattered Clouds
5:15 PM 80.1 °F 49.8 °F 35% 30.01 in 10.0 mi SE 17.3 mph - N/A   Scattered Clouds
5:35 PM 79.9 °F 53.4 °F 40% 30.00 in 10.0 mi SE 15.0 mph 19.6 mph N/A   Scattered Clouds
5:55 PM 78.4 °F 51.8 °F 39% 30.00 in 10.0 mi SE 9.2 mph 18.4 mph N/A   Scattered Clouds
6:15 PM 78.3 °F 53.2 °F 42% 29.99 in 10.0 mi SE 12.7 mph - N/A   Clear
6:35 PM 77.2 °F 55.4 °F 47% 29.99 in 10.0 mi SE 15.0 mph 19.6 mph N/A   Clear
6:55 PM 76.8 °F 54.5 °F 46% 29.99 in 10.0 mi SE 13.8 mph 18.4 mph N/A   Scattered Clouds
7:15 PM 75.2 °F 55.4 °F 50% 29.99 in 10.0 mi SE 13.8 mph - N/A   Clear
7:35 PM 73.4 °F 59.0 °F 61% 29.99 in 10.0 mi SSE 9.2 mph - N/A   Clear
7:55 PM 72.5 °F 58.5 °F 61% 29.99 in 10.0 mi SSE 10.4 mph - N/A   Clear
8:15 PM 71.6 °F 57.7 °F 62% 30.00 in 10.0 mi SSE 15.0 mph 20.7 mph N/A   Clear
8:35 PM 70.7 °F 57.9 °F 64% 30.00 in 10.0 mi SE 12.7 mph 18.4 mph N/A   Clear
8:55 PM 69.8 °F 58.1 °F 66% 30.01 in 10.0 mi SE 12.7 mph - N/A   Scattered Clouds
9:15 PM 68.9 °F 59.0 °F 71% 30.01 in 10.0 mi SE 12.7 mph - N/A   Clear
9:35 PM 68.9 °F 59.7 °F 72% 30.01 in 10.0 mi SSE 9.2 mph - N/A   Mostly Cloudy
9:55 PM 68.2 °F 59.9 °F 75% 30.02 in 10.0 mi SE 11.5 mph - N/A   Overcast
10:15 PM 68.0 °F 59.9 °F 75% 30.02 in 10.0 mi SE 10.4 mph - N/A   Overcast
10:35 PM 68.2 °F 59.9 °F 75% 30.02 in 10.0 mi ESE 9.2 mph - N/A   Overcast
10:55 PM 68.0 °F 59.9 °F 75% 30.02 in 10.0 mi SE 10.4 mph - N/A   Overcast
11:15 PM 68.0 °F 60.4 °F 77% 30.02 in 10.0 mi SE 10.4 mph - N/A   Overcast
11:35 PM 68.0 °F 60.8 °F 78% 30.02 in 10.0 mi SE 10.4 mph - N/A   Overcast